Location: Prague
(50.0830°N, 14.4670°E)
Time: 12:56:32
(UTC+02:00)

X-37B - Pass Details

Date: 02 October 2021
Orbit: 385 x 389 km, 45.0° (Epoch: 17 October)

Event Time Altitude Azimuth Distance (km) Brightness Sun altitude
Exits shadow 05:20:32 21° 182° (S) 923 2.3 -17.2°
Drops below altitude 10° 05:22:34 10° 144° (SE) 1,410 3.7 -16.9°
Sets 05:24:54 0° 128° (SE) 2,263 5.0 -16.6°
